EN

Hourly Weather Amargosa

Today, 23 January, Saturday

Time Temperature Precipitation Wind Pressure Humidity
00:00 +21°C° 0 mm 1 mps 726 mmHg 96%
01:00 +21°C° 0.1 mm 1 mps 726 mmHg 97%
02:00 +21°C° 0.1 mm 1 mps 726 mmHg 97%
03:00 +21°C° 0.1 mm 1 mps 725 mmHg 98%
04:00 +21°C° 0 mm 1 mps 725 mmHg 97%
05:00 +21°C° 0 mm 1 mps 726 mmHg 96%
06:00 +21°C° 0 mm 1 mps 726 mmHg 95%
07:00 +23°C° 0 mm 2 mps 726 mmHg 86%
08:00 +25°C° 0 mm 2 mps 727 mmHg 77%
09:00 +27°C° 0 mm 3 mps 727 mmHg 68%
10:00 +27°C° 0.3 mm 3 mps 727 mmHg 67%
11:00 +28°C° 0.3 mm 3 mps 727 mmHg 66%
12:00 +28°C° 0.3 mm 4 mps 726 mmHg 65%
13:00 +29°C° 0.1 mm 4 mps 726 mmHg 62%
14:00 +29°C° 0.1 mm 4 mps 725 mmHg 60%
15:00 +29°C° 0.1 mm 4 mps 725 mmHg 58%
16:00 +28°C° 0 mm 4 mps 725 mmHg 65%
17:00 +26°C° 0 mm 3 mps 725 mmHg 73%
18:00 +24°C° 0 mm 3 mps 725 mmHg 80%
19:00 +24°C° 0 mm 3 mps 725 mmHg 84%
20:00 +23°C° 0 mm 2 mps 726 mmHg 88%
21:00 +21°C° 0 mm 2 mps 726 mmHg 91%
22:00 +21°C° 0 mm 2 mps 726 mmHg 93%
23:00 +21°C° 0 mm 2 mps 725 mmHg 94%

Tomorrow, 24 January, Sunday

Time Temperature Precipitation Wind Pressure Humidity
00:00 +21°C° 0 mm 2 mps 725 mmHg 96%
01:00 +21°C° 0.1 mm 2 mps 725 mmHg 97%
02:00 +21°C° 0.1 mm 2 mps 725 mmHg 97%
03:00 +22°C° 0.1 mm 1 mps 724 mmHg 98%
04:00 +22°C° 0.1 mm 1 mps 724 mmHg 98%
05:00 +22°C° 0.1 mm 1 mps 725 mmHg 97%
06:00 +22°C° 0.1 mm 1 mps 725 mmHg 97%
07:00 +24°C° 0.2 mm 2 mps 725 mmHg 90%
08:00 +25°C° 0.2 mm 2 mps 726 mmHg 83%
09:00 +27°C° 0.2 mm 2 mps 726 mmHg 77%
10:00 +28°C° 0.2 mm 3 mps 726 mmHg 71%
11:00 +29°C° 0.2 mm 3 mps 726 mmHg 65%
12:00 +30°C° 0.2 mm 3 mps 725 mmHg 59%
13:00 +29°C° 0.1 mm 4 mps 725 mmHg 60%
14:00 +29°C° 0.1 mm 4 mps 724 mmHg 61%
15:00 +29°C° 0.1 mm 4 mps 724 mmHg 61%
16:00 +28°C° 0 mm 4 mps 724 mmHg 66%
17:00 +27°C° 0 mm 3 mps 724 mmHg 72%
18:00 +25°C° 0 mm 3 mps 724 mmHg 77%
19:00 +24°C° 0 mm 3 mps 724 mmHg 82%
20:00 +24°C° 0 mm 3 mps 724 mmHg 87%
21:00 +23°C° 0 mm 2 mps 725 mmHg 92%
22:00 +21°C° 0.1 mm 2 mps 725 mmHg 94%
23:00 +21°C° 0.1 mm 2 mps 724 mmHg 96%

Day after tomorrow, 25 January, Monday

Time Temperature Precipitation Wind Pressure Humidity
00:00 +22°C° 0.1 mm 1 mps 724 mmHg 98%
01:00 +22°C° 0 mm 1 mps 724 mmHg 98%
02:00 +22°C° 0 mm 1 mps 724 mmHg 98%
03:00 +21°C° 0 mm 1 mps 723 mmHg 98%
04:00 +22°C° 0.1 mm 1 mps 724 mmHg 97%
05:00 +22°C° 0.1 mm 1 mps 724 mmHg 96%
06:00 +20°C° 0.1 mm 0 mps 724 mmHg 96%
07:00 +24°C° 0.2 mm 1 mps 725 mmHg 88%
08:00 +25°C° 0.2 mm 2 mps 725 mmHg 81%
09:00 +27°C° 0.2 mm 3 mps 726 mmHg 73%
10:00 +29°C° 0 mm 3 mps 725 mmHg 63%
11:00 +31°C° 0 mm 3 mps 725 mmHg 53%
12:00 +34°C° 0 mm 4 mps 725 mmHg 43%
13:00 +33°C° 0.1 mm 4 mps 725 mmHg 46%
14:00 +33°C° 0.1 mm 4 mps 724 mmHg 48%
15:00 +32°C° 0.1 mm 5 mps 723 mmHg 50%
16:00 +30°C° 0 mm 4 mps 723 mmHg 56%
17:00 +28°C° 0 mm 4 mps 724 mmHg 61%
18:00 +26°C° 0 mm 3 mps 724 mmHg 67%
19:00 +25°C° 0 mm 3 mps 724 mmHg 77%
20:00 +23°C° 0 mm 2 mps 724 mmHg 86%
21:00 +21°C° 0 mm 2 mps 724 mmHg 95%
22:00 +22°C° 0 mm 1 mps 724 mmHg 96%
23:00 +22°C° 0 mm 1 mps 724 mmHg 97%

26 January, Tuesday

Time Temperature Precipitation Wind Pressure Humidity
00:00 +21°C° 0 mm 1 mps 724 mmHg 98%
01:00 +21°C° 0.1 mm 1 mps 724 mmHg 98%
02:00 +21°C° 0.1 mm 1 mps 724 mmHg 98%
03:00 +21°C° 0.1 mm 1 mps 724 mmHg 98%
04:00 +21°C° 0.1 mm 1 mps 724 mmHg 98%
05:00 +21°C° 0.1 mm 1 mps 724 mmHg 97%
06:00 +21°C° 0.1 mm 1 mps 725 mmHg 97%
07:00 +23°C° 0.1 mm 1 mps 725 mmHg 89%
08:00 +25°C° 0.1 mm 2 mps 725 mmHg 81%
09:00 +26°C° 0.1 mm 2 mps 726 mmHg 72%
10:00 +28°C° 0.1 mm 3 mps 726 mmHg 67%
11:00 +29°C° 0.1 mm 3 mps 725 mmHg 61%
12:00 +30°C° 0.1 mm 4 mps 725 mmHg 55%
13:00 +30°C° 0.2 mm 4 mps 725 mmHg 57%
14:00 +29°C° 0.2 mm 4 mps 724 mmHg 59%
15:00 +29°C° 0.2 mm 4 mps 724 mmHg 61%
16:00 +28°C° 0 mm 4 mps 724 mmHg 67%
17:00 +26°C° 0 mm 4 mps 724 mmHg 72%
18:00 +25°C° 0 mm 3 mps 724 mmHg 77%
19:00 +24°C° 0 mm 3 mps 724 mmHg 84%
20:00 +23°C° 0 mm 2 mps 724 mmHg 90%
21:00 +21°C° 0 mm 2 mps 725 mmHg 96%
22:00 +22°C° 0 mm 1 mps 725 mmHg 96%
23:00 +22°C° 0 mm 1 mps 725 mmHg 96%

27 January, Wednesday

Time Temperature Precipitation Wind Pressure Humidity
00:00 +21°C° 0 mm 1 mps 725 mmHg 96%
01:00 +22°C° 0 mm 1 mps 724 mmHg 95%
02:00 +20°C° 0 mm 0 mps 724 mmHg 93%
03:00 +21°C° 0 mm 0 mps 724 mmHg 92%
04:00 +21°C° 0.3 mm 0 mps 724 mmHg 93%
05:00 +20°C° 0.3 mm 0 mps 725 mmHg 94%
06:00 +20°C° 0.3 mm 0 mps 725 mmHg 94%
07:00 +22°C° 0.4 mm 0 mps 725 mmHg 87%
08:00 +25°C° 0.4 mm 1 mps 726 mmHg 80%
09:00 +27°C° 0.4 mm 2 mps 726 mmHg 73%
10:00 +29°C° 0.2 mm 2 mps 726 mmHg 64%
11:00 +30°C° 0.2 mm 3 mps 725 mmHg 56%
12:00 +33°C° 0.2 mm 3 mps 725 mmHg 48%
13:00 +33°C° 0 mm 3 mps 725 mmHg 47%
14:00 +33°C° 0 mm 4 mps 724 mmHg 47%
15:00 +33°C° 0 mm 4 mps 724 mmHg 47%
16:00 +30°C° 0 mm 4 mps 724 mmHg 57%
17:00 +28°C° 0 mm 4 mps 724 mmHg 67%
18:00 +26°C° 0 mm 4 mps 724 mmHg 77%
19:00 +25°C° 0 mm 3 mps 724 mmHg 83%
20:00 +24°C° 0 mm 3 mps 724 mmHg 89%
21:00 +23°C° 0 mm 2 mps 724 mmHg 95%
22:00 +21°C° 0 mm 2 mps 724 mmHg 96%
23:00 +21°C° 0 mm 2 mps 724 mmHg 97%

28 January, Thursday

Time Temperature Precipitation Wind Pressure Humidity
00:00 +21°C° 0 mm 2 mps 724 mmHg 98%
01:00 +21°C° 0 mm 2 mps 724 mmHg 98%
02:00 +21°C° 0 mm 1 mps 724 mmHg 98%
03:00 +21°C° 0 mm 1 mps 723 mmHg 98%
04:00 +21°C° 0 mm 1 mps 724 mmHg 98%
05:00 +21°C° 0 mm 1 mps 724 mmHg 97%
06:00 +21°C° 0 mm 1 mps 724 mmHg 97%
07:00 +23°C° 0 mm 1 mps 725 mmHg 85%
08:00 +26°C° 0 mm 2 mps 725 mmHg 74%
09:00 +28°C° 0 mm 2 mps 725 mmHg 62%
10:00 +29°C° 0 mm 2 mps 725 mmHg 57%
11:00 +30°C° 0 mm 2 mps 725 mmHg 53%
12:00 +32°C° 0 mm 2 mps 724 mmHg 48%
13:00 +31°C° 0.2 mm 3 mps 724 mmHg 50%
14:00 +31°C° 0.2 mm 3 mps 723 mmHg 53%
15:00 +30°C° 0.2 mm 4 mps 722 mmHg 55%
Show more